KLM1426 LFSB-EHAM

Flight info

Callsign KLM1426
Flight time 1h 3m
Altitude 34000
Route TORPA DCT EDOPI DCT GIVOR DCT SORAL/N0457F380 DCT IBERA DCT RITAX M624 BUB Y28 HELEN
Aircraft E190/M-SDE2E3FGIJ1RWY/LB1

Departure

Time 2026-05-07 15:59
Airport EuroAirport Basel–Mulhouse–Freiburg (LFSB)

Arrival

Time 2026-05-07 17:02
Airport Amsterdam Airport Schiphol (EHAM)
Time Latitude Longitude Altitude Speed Heading
2026-05-07 15:51 47.59170 7.53094 891 ft 17 kts 152°
2026-05-07 15:51 47.59061 7.53169 891 ft 17 kts 157°
2026-05-07 15:51 47.58951 7.53243 892 ft 17 kts 154°
2026-05-07 15:51 47.58841 7.53321 892 ft 17 kts 154°
2026-05-07 15:52 47.58732 7.53396 892 ft 15 kts 155°
2026-05-07 15:52 47.58671 7.53390 893 ft 8 kts 233°
2026-05-07 15:52 47.58648 7.53322 893 ft 3 kts 244°
2026-05-07 15:52 47.58647 7.53320 893 ft 0 kts 244°
2026-05-07 15:55 47.58647 7.53319 893 ft 0 kts 244°
2026-05-07 15:56 47.58645 7.53312 893 ft 2 kts 244°
2026-05-07 15:56 47.58628 7.53260 894 ft 8 kts 248°
2026-05-07 15:56 47.58653 7.53155 894 ft 14 kts 338°
2026-05-07 15:56 47.58717 7.53110 893 ft 0 kts 335°
2026-05-07 15:58 47.58838 7.53027 893 ft 51 kts 336°
2026-05-07 15:58 47.59359 7.52663 890 ft 110 kts 335°
2026-05-07 15:58 47.60206 7.52074 905 ft 152 kts 338°
2026-05-07 15:59 47.61203 7.51391 1197 ft 166 kts 337°
2026-05-07 15:59 47.62249 7.50680 1768 ft 166 kts 338°
2026-05-07 15:59 47.63298 7.49951 2325 ft 174 kts 336°
2026-05-07 15:59 47.64440 7.49020 2695 ft 203 kts 323°
2026-05-07 16:00 47.65232 7.47197 3236 ft 226 kts 282°
2026-05-07 16:00 47.64969 7.44872 3925 ft 242 kts 238°
2026-05-07 16:00 47.63725 7.43171 4524 ft 257 kts 207°
2026-05-07 16:00 47.62121 7.41873 5044 ft 267 kts 213°
2026-05-07 16:01 47.60589 7.40324 5603 ft 271 kts 217°
2026-05-07 16:01 47.59079 7.38611 6150 ft 280 kts 219°
2026-05-07 16:01 47.57563 7.36778 7065 ft 286 kts 220°
2026-05-07 16:01 47.56067 7.34914 8207 ft 282 kts 220°
2026-05-07 16:02 47.54610 7.33075 9336 ft 277 kts 221°
2026-05-07 16:02 47.53162 7.31235 10356 ft 275 kts 221°
2026-05-07 16:02 47.51751 7.29344 11118 ft 282 kts 231°
2026-05-07 16:02 47.50908 7.26679 11695 ft 295 kts 255°
2026-05-07 16:03 47.50431 7.23686 12291 ft 308 kts 256°
2026-05-07 16:03 47.49939 7.20619 12906 ft 305 kts 256°
2026-05-07 16:03 47.49450 7.17577 13100 ft 304 kts 256°
2026-05-07 16:03 47.48956 7.14517 13109 ft 310 kts 256°
2026-05-07 16:04 47.48449 7.11386 13126 ft 315 kts 256°
2026-05-07 16:04 47.47942 7.08262 13219 ft 318 kts 256°
2026-05-07 16:04 47.47424 7.05073 13374 ft 317 kts 256°
2026-05-07 16:04 47.46907 7.01901 13545 ft 317 kts 256°
2026-05-07 16:05 47.46593 6.98711 13669 ft 318 kts 270°
2026-05-07 16:05 47.46714 6.95471 13803 ft 318 kts 272°
2026-05-07 16:05 47.46852 6.92207 13928 ft 319 kts 272°
2026-05-07 16:05 47.46991 6.88913 14045 ft 320 kts 272°
2026-05-07 16:06 47.47128 6.85660 14179 ft 320 kts 272°
2026-05-07 16:06 47.47267 6.82340 14296 ft 321 kts 272°
2026-05-07 16:06 47.47402 6.79082 14404 ft 321 kts 272°
2026-05-07 16:06 47.47539 6.75770 14519 ft 322 kts 272°
2026-05-07 16:07 47.47674 6.72476 14639 ft 323 kts 272°
2026-05-07 16:07 47.48056 6.69229 14715 ft 326 kts 292°
2026-05-07 16:07 47.49451 6.66479 14857 ft 352 kts 318°
2026-05-07 16:07 47.51331 6.64262 15136 ft 346 kts 327°
2026-05-07 16:08 47.53680 6.63173 15850 ft 361 kts 356°
2026-05-07 16:08 47.56130 6.63509 16887 ft 356 kts
2026-05-07 16:08 47.58586 6.63469 17843 ft 351 kts 354°
2026-05-07 16:08 47.60995 6.63149 18640 ft 353 kts 352°
2026-05-07 16:09 47.63434 6.62722 19351 ft 358 kts 351°
2026-05-07 16:09 47.65916 6.62247 20052 ft 363 kts 350°
2026-05-07 16:09 47.68428 6.61751 20769 ft 365 kts 350°
2026-05-07 16:09 47.70948 6.61247 21369 ft 367 kts 350°
2026-05-07 16:10 47.73464 6.60741 21895 ft 371 kts 350°
2026-05-07 16:10 47.76015 6.60227 22415 ft 375 kts 350°
2026-05-07 16:10 47.78621 6.59701 22953 ft 378 kts 350°
2026-05-07 16:10 47.81233 6.59174 23513 ft 380 kts 350°
2026-05-07 16:11 47.83842 6.58646 24057 ft 383 kts 350°
2026-05-07 16:11 47.86499 6.58108 24595 ft 386 kts 350°
2026-05-07 16:11 47.89161 6.57568 25121 ft 388 kts 350°
2026-05-07 16:11 47.91869 6.57019 25635 ft 391 kts 350°
2026-05-07 16:12 47.94603 6.56389 26155 ft 393 kts 348°
2026-05-07 16:12 47.97327 6.55739 26673 ft 395 kts 348°
2026-05-07 16:12 48.00048 6.55089 27175 ft 397 kts 348°
2026-05-07 16:12 48.02779 6.54435 27677 ft 398 kts 349°
2026-05-07 16:13 48.05527 6.53777 28165 ft 400 kts 349°
2026-05-07 16:13 48.08293 6.53113 28635 ft 403 kts 348°
2026-05-07 16:13 48.11043 6.52453 29067 ft 406 kts 348°
2026-05-07 16:13 48.13868 6.51774 29504 ft 408 kts 349°
2026-05-07 16:14 48.16690 6.51095 29944 ft 411 kts 348°
2026-05-07 16:14 48.19503 6.50417 30376 ft 413 kts 348°
2026-05-07 16:14 48.22347 6.49732 30791 ft 416 kts 348°
2026-05-07 16:14 48.25204 6.49042 31168 ft 418 kts 349°
2026-05-07 16:15 48.28058 6.48352 31526 ft 420 kts 349°
2026-05-07 16:15 48.30936 6.47656 31885 ft 422 kts 349°
2026-05-07 16:15 48.33829 6.46955 32278 ft 423 kts 348°
2026-05-07 16:15 48.36743 6.46248 32705 ft 423 kts 348°
2026-05-07 16:16 48.39630 6.45548 33140 ft 422 kts 348°
2026-05-07 16:16 48.42538 6.44841 33575 ft 421 kts 348°
2026-05-07 16:16 48.45390 6.44147 33930 ft 414 kts 348°
2026-05-07 16:17 48.51028 6.42772 33994 ft 415 kts 348°
2026-05-07 16:17 48.56815 6.41358 34313 ft 426 kts 348°
2026-05-07 16:17 48.59741 6.40642 34797 ft 425 kts 348°
2026-05-07 16:18 48.62633 6.39933 35266 ft 421 kts 348°
2026-05-07 16:18 48.65486 6.39326 35672 ft 420 kts 354°
2026-05-07 16:18 48.68427 6.39368 36002 ft 422 kts
2026-05-07 16:18 48.71356 6.39687 36284 ft 423 kts
2026-05-07 16:19 48.74276 6.39988 36535 ft 425 kts
2026-05-07 16:19 48.77232 6.40289 36763 ft 425 kts
2026-05-07 16:19 48.80179 6.40587 36884 ft 426 kts
2026-05-07 16:20 48.86107 6.41189 37056 ft 428 kts
2026-05-07 16:20 48.89031 6.41485 37158 ft 427 kts
2026-05-07 16:20 48.91993 6.41786 37243 ft 428 kts
2026-05-07 16:21 48.97935 6.42392 37425 ft 428 kts
2026-05-07 16:21 49.03872 6.42998 37612 ft 429 kts
2026-05-07 16:22 49.09813 6.43541 37794 ft 429 kts 357°
2026-05-07 16:22 49.12744 6.43139 37900 ft 426 kts 347°
2026-05-07 16:22 49.15615 6.42057 38005 ft 427 kts 342°
2026-05-07 16:23 49.21447 6.39645 38032 ft 441 kts 343°
2026-05-07 16:23 49.27498 6.37156 38035 ft 455 kts 343°
2026-05-07 16:24 49.33588 6.34646 38031 ft 454 kts 342°
2026-05-07 16:24 49.39719 6.32113 38029 ft 453 kts 342°
2026-05-07 16:25 49.45784 6.29600 38034 ft 454 kts 342°
2026-05-07 16:25 49.51786 6.26689 38037 ft 450 kts 332°
2026-05-07 16:26 49.57315 6.22243 38036 ft 449 kts 329°
2026-05-07 16:26 49.62816 6.17761 38036 ft 449 kts 329°
2026-05-07 16:27 49.68341 6.13248 38038 ft 450 kts 330°
2026-05-07 16:27 49.73838 6.08748 38031 ft 450 kts 330°
2026-05-07 16:28 49.79359 6.04216 38028 ft 450 kts 330°
2026-05-07 16:28 49.84884 5.99670 38027 ft 450 kts 329°
2026-05-07 16:29 49.90384 5.95130 38026 ft 450 kts 330°
2026-05-07 16:29 49.95873 5.90590 38027 ft 450 kts 329°
2026-05-07 16:30 50.01384 5.86019 38024 ft 450 kts 329°
2026-05-07 16:30 50.06867 5.81337 38020 ft 449 kts 324°
2026-05-07 16:31 50.11539 5.75055 38026 ft 446 kts 314°
2026-05-07 16:31 50.16006 5.68326 38020 ft 447 kts 314°
2026-05-07 16:32 50.20484 5.61564 38021 ft 447 kts 314°
2026-05-07 16:32 50.24939 5.54819 38024 ft 447 kts 314°
2026-05-07 16:33 50.29381 5.48074 38027 ft 447 kts 314°
2026-05-07 16:33 50.33813 5.41327 38031 ft 447 kts 314°
2026-05-07 16:34 50.38241 5.34566 38032 ft 446 kts 313°
2026-05-07 16:34 50.42701 5.27737 38037 ft 446 kts 313°
2026-05-07 16:35 50.47148 5.20912 38043 ft 447 kts 313°
2026-05-07 16:35 50.51510 5.14196 38036 ft 430 kts 313°
2026-05-07 16:36 50.55745 5.07660 38045 ft 430 kts 313°
2026-05-07 16:36 50.57895 5.04333 37781 ft 435 kts 313°
2026-05-07 16:36 50.60031 5.01025 37325 ft 434 kts 313°
2026-05-07 16:36 50.62190 4.97678 36843 ft 430 kts 313°
2026-05-07 16:37 50.64310 4.94386 36365 ft 424 kts 313°
2026-05-07 16:37 50.66371 4.91180 35903 ft 420 kts 314°
2026-05-07 16:37 50.68451 4.87947 35439 ft 417 kts 314°
2026-05-07 16:37 50.70537 4.84699 34517 ft 428 kts 314°
2026-05-07 16:38 50.72622 4.81449 33672 ft 427 kts 314°
2026-05-07 16:38 50.74738 4.78146 32787 ft 426 kts 314°
2026-05-07 16:38 50.76806 4.74914 32321 ft 418 kts 314°
2026-05-07 16:38 50.78889 4.71652 31849 ft 423 kts 314°
2026-05-07 16:39 50.80990 4.68358 31379 ft 428 kts 314°
2026-05-07 16:39 50.83111 4.65030 30899 ft 429 kts 314°
2026-05-07 16:39 50.85211 4.61729 30412 ft 426 kts 314°
2026-05-07 16:39 50.87305 4.58434 29941 ft 422 kts 314°
2026-05-07 16:40 50.89359 4.55161 29478 ft 419 kts 311°
2026-05-07 16:40 50.91119 4.51534 29024 ft 414 kts 301°
2026-05-07 16:40 50.92620 4.47664 28566 ft 411 kts 300°
2026-05-07 16:40 50.94098 4.43835 28111 ft 408 kts 300°
2026-05-07 16:41 50.95599 4.39946 27655 ft 406 kts 300°
2026-05-07 16:41 50.97062 4.36152 27210 ft 403 kts 300°
2026-05-07 16:41 50.98511 4.32387 26771 ft 401 kts 300°
2026-05-07 16:41 50.99980 4.28566 26322 ft 398 kts 300°
2026-05-07 16:42 51.01405 4.24850 25885 ft 396 kts 300°
2026-05-07 16:42 51.02843 4.21099 25444 ft 394 kts 300°
2026-05-07 16:42 51.04245 4.17436 25013 ft 392 kts 300°
2026-05-07 16:42 51.05649 4.13761 24579 ft 389 kts 300°
2026-05-07 16:43 51.07044 4.10106 24155 ft 387 kts 300°
2026-05-07 16:43 51.08449 4.06418 23728 ft 385 kts 299°
2026-05-07 16:43 51.10013 4.03140 23307 ft 386 kts 316°
2026-05-07 16:43 51.12113 4.00516 22901 ft 386 kts 321°
2026-05-07 16:44 51.14265 3.97959 22453 ft 383 kts 321°
2026-05-07 16:44 51.16400 3.95430 22026 ft 380 kts 322°
2026-05-07 16:44 51.18489 3.92956 21611 ft 377 kts 322°
2026-05-07 16:44 51.20586 3.90470 21200 ft 375 kts 322°
2026-05-07 16:45 51.22700 3.88127 20776 ft 375 kts 332°
2026-05-07 16:45 51.25227 3.87039 20385 ft 377 kts 355°
2026-05-07 16:45 51.27810 3.86900 19960 ft 375 kts 358°
2026-05-07 16:45 51.30409 3.86821 19539 ft 373 kts 358°
2026-05-07 16:46 51.32999 3.86754 19125 ft 370 kts 358°
2026-05-07 16:46 51.35560 3.86692 18714 ft 367 kts 358°
2026-05-07 16:46 51.38102 3.86631 18311 ft 365 kts 358°
2026-05-07 16:46 51.40614 3.86572 17912 ft 363 kts 358°
2026-05-07 16:47 51.43115 3.86513 17517 ft 361 kts 358°
2026-05-07 16:47 51.45610 3.86454 17126 ft 358 kts 358°
2026-05-07 16:47 51.48107 3.86395 16717 ft 356 kts 358°
2026-05-07 16:47 51.50563 3.86336 16328 ft 354 kts 358°
2026-05-07 16:48 51.53013 3.86279 15941 ft 352 kts 358°
2026-05-07 16:48 51.55470 3.86220 15552 ft 350 kts 358°
2026-05-07 16:48 51.57875 3.86163 15174 ft 348 kts 358°
2026-05-07 16:48 51.60287 3.86106 15064 ft 345 kts 358°
2026-05-07 16:49 51.62672 3.86049 14732 ft 353 kts 358°
2026-05-07 16:49 51.65151 3.85990 14033 ft 349 kts 359°
2026-05-07 16:49 51.67519 3.85934 13629 ft 338 kts 359°
2026-05-07 16:49 51.69848 3.85878 13262 ft 334 kts 359°
2026-05-07 16:50 51.72135 3.86413 12902 ft 336 kts 22°
2026-05-07 16:50 51.74065 3.88456 12531 ft 337 kts 40°
2026-05-07 16:50 51.75815 3.90929 12133 ft 335 kts 41°
2026-05-07 16:50 51.77561 3.93426 11763 ft 332 kts 41°
2026-05-07 16:51 51.79259 3.95867 11397 ft 322 kts 41°
2026-05-07 16:51 51.80911 3.98248 11028 ft 312 kts 41°
2026-05-07 16:51 51.82511 4.00557 10690 ft 302 kts 41°
2026-05-07 16:51 51.84048 4.02778 10358 ft 293 kts 41°
2026-05-07 16:52 51.85554 4.04957 10040 ft 285 kts 41°
2026-05-07 16:52 51.87030 4.07093 9728 ft 278 kts 41°
2026-05-07 16:52 51.88446 4.09145 9423 ft 271 kts 41°
2026-05-07 16:52 51.89836 4.11161 9126 ft 264 kts 42°
2026-05-07 16:53 51.91192 4.13124 8843 ft 260 kts 40°
2026-05-07 16:53 51.92585 4.14977 8587 ft 260 kts 39°
2026-05-07 16:53 51.93976 4.16811 8312 ft 260 kts 39°
2026-05-07 16:53 51.95374 4.18656 8027 ft 259 kts 39°
2026-05-07 16:54 51.96765 4.20492 7727 ft 258 kts 39°
2026-05-07 16:54 51.98151 4.22324 7443 ft 256 kts 40°
2026-05-07 16:54 51.99516 4.24130 7171 ft 254 kts 40°
2026-05-07 16:54 52.00889 4.25948 6906 ft 253 kts 40°
2026-05-07 16:55 52.02239 4.27737 6626 ft 249 kts 40°
2026-05-07 16:55 52.03566 4.29495 6343 ft 243 kts 40°
2026-05-07 16:55 52.04867 4.31223 6065 ft 238 kts 40°
2026-05-07 16:55 52.06127 4.32896 5818 ft 232 kts 40°
2026-05-07 16:56 52.07355 4.34529 5548 ft 227 kts 40°
2026-05-07 16:56 52.08557 4.36128 5299 ft 222 kts 40°
2026-05-07 16:56 52.10847 4.39177 4835 ft 221 kts 40°
2026-05-07 16:57 52.12018 4.40738 4612 ft 220 kts 40°
2026-05-07 16:57 52.13205 4.42321 4368 ft 219 kts 40°
2026-05-07 16:57 52.14380 4.43889 4134 ft 218 kts 40°
2026-05-07 16:57 52.15546 4.45447 3898 ft 216 kts 40°
2026-05-07 16:58 52.16704 4.46995 3627 ft 216 kts 40°
2026-05-07 16:58 52.17860 4.48541 3341 ft 213 kts 40°
2026-05-07 16:58 52.18984 4.50045 3091 ft 210 kts 40°
2026-05-07 16:58 52.20110 4.51554 2986 ft 206 kts 40°
2026-05-07 16:59 52.21059 4.53316 2898 ft 210 kts 58°
2026-05-07 16:59 52.21815 4.55315 2644 ft 210 kts 58°
2026-05-07 16:59 52.22595 4.57345 2368 ft 208 kts 57°
2026-05-07 16:59 52.23344 4.59285 2133 ft 197 kts 57°
2026-05-07 17:00 52.24031 4.61064 1853 ft 177 kts 57°
2026-05-07 17:00 52.24657 4.62692 1589 ft 160 kts 57°
2026-05-07 17:00 52.25213 4.64140 1412 ft 143 kts 57°
2026-05-07 17:00 52.25731 4.65495 1207 ft 141 kts 58°
2026-05-07 17:01 52.26257 4.66867 1012 ft 143 kts 58°
2026-05-07 17:01 52.26794 4.68257 815 ft 144 kts 58°
2026-05-07 17:01 52.27331 4.69647 618 ft 145 kts 58°
2026-05-07 17:01 52.27880 4.71040 428 ft 145 kts 56°
2026-05-07 17:02 52.28431 4.72425 230 ft 145 kts 60°
2026-05-07 17:02 52.28947 4.73801 35 ft 140 kts 58°
2026-05-07 17:02 52.29416 4.75031 -1 ft 109 kts 58°
2026-05-07 17:02 52.29684 4.75730 -1 ft 38 kts 52°
2026-05-07 17:03 52.29798 4.75822 -1 ft 14 kts 18°
2026-05-07 17:03 52.29891 4.75895 -1 ft 15 kts 27°
2026-05-07 17:03 52.29913 4.75913 -1 ft 0 kts 28°
2026-05-07 17:04 52.29915 4.75915 -1 ft 1 kts 28°
2026-05-07 17:04 52.29950 4.75946 -1 ft 9 kts 28°
2026-05-07 17:04 52.30016 4.76050 -1 ft 16 kts 58°
2026-05-07 17:05 52.30093 4.76250 -1 ft 15 kts 57°
2026-05-07 17:05 52.30181 4.76262 -1 ft 13 kts 345°
2026-05-07 17:05 52.30242 4.76219 -1 ft 6 kts 334°
2026-05-07 17:05 52.30261 4.76225 -1 ft 2 kts 37°
2026-05-07 17:06 52.30273 4.76250 -1 ft 2 kts 57°
2026-05-07 17:06 52.30280 4.76267 -1 ft 0 kts 58°
2026-05-07 17:06 52.30281 4.76270 -1 ft 0 kts 58°